Погода Костанай

Погода Костанай : погода сейчас, прогноз погоды и архив. Всё, что Вы хотите узнать о погоде Костанай!

Хотите узнать прогноз погоды в Костанае? Тогда Вам сюда: Погода в Костанае

Поиск расширенной информации на нашем сайте:

Другие новости

Новости СМИ2

Главная страница сайта

Новости сайта

02.10.2013

Напоминаем, что на нашем новом сайте вы можете получить высокодетализированные прогнозы погоды по пунктам России, СНГ и мира (включающие важные для авиации метеовеличины, такие как направление и скорость ветра, видимость, явления погоды, количество и форма облачности, нижняя и верхняя граница облачности), а также ознакомиться с разнообразными материалами по авиационной метеорологии и подборкой полезных ссылок на эту тему.

Сайт Метеоцентр.Азия посвящён разработке технологий оптимизации авиаметеорологического обслуживания, включая проектирование и перспективное создание нескольких автоматизированных авиаметеорологических систем:
- система выпуска высокодетальных прогностических карт явлений погоды для нижнего воздушного пространства по России и ближнему зарубежью;
- система верификации прогнозов TAF (выпускаемых синоптиками официальных АМСГ РФ и ближнего зарубежья) и AUTOTAF (выпускаемых сайтом Метеоцентр.Азия) - выявление ошибок, онлайн-сопоставление с фактической погодой METAR, автоматическое внесение коррективов в прогнозы при резком отклонении фактической погоды от прогноза, подсчёт оправдываемости прогнозов по элементам и в целом;
- система обработки, анализа и отображения авиаметеорологической информации для применения провайдерами метеорологической информации.


Погода Костанай - сегодня

Время (UTC), дата Ветер
(°,м/с) 
Видим.   Явления Облачность Т
(°С)
Тd
(°С)
f(%) Тe
(°С)
Pmin
(гПа)
dP
(гПа)
Po
(мм)
O2
(г/м3)
Тmin Tmax R s Состояние
почвы
21 17.01.17 тихо ()   н/о  дымка  3/0 верхняя 
[Ci fib]
-21.6 -24.1 80 -22  1040.2  -1.2  764  336           
00 18.01.17 тихо ()   н/о  дымка  ясно 
-23.9 -26.4 80 -24  1039.9  -0.5  764  339           
03 18.01.17 тихо ()   н/о    10/0 средняя 
[As trans]
-23.1 -26.3 75 -23  1038.7  -1.1  763  338        22  равномерный
сухой снег
100% 
06 18.01.17 тихо ()   20000 м    6/0 средняя, верхняя 
[Ac trans|Ci fib]
-18.3 -21.6 75 -18  1037.9  -0.4  763  331  -24.6         
09 18.01.17 070 (В) 20000 м    8/0 верхняя 
[Ci]
-14.9 -20 65 -17  1036.3  -1.3  762  326           
12 18.01.17 тихо ()   20000 м    8/0 верхняя 
[Ci]
-18.4 -22.5 70 -18  1035.8  -0.8  761  331           
15 18.01.17 тихо ()   н/о    ясно 
-21.4 -24.7 75 -21  1034.7  -1.2  760  334    -14.1       
18 18.01.17 тихо ()   н/о    ясно 
-19.3 -22.6 75 -19  1033.1  -1.4  759  331    -14.1       
21 18.01.17 140 (ЮВ) н/о    ясно 
-20.4 -22.9 80 -21  1031.9  -1.4  758  332           
00 19.01.17 тихо ()   н/о    ясно 
-22 -24.5 80 -22  1030.7  -1.2  757  334           
03 19.01.17 140 (ЮВ) н/о    ясно 
-22.2 -24.7 80 -23  1029.6  -1.3  756  333        22  равномерный
сухой снег
100% 
06 19.01.17 160 (Ю) 20000 м    8/0 верхняя 
[Ci]
-20.4 -23.7 75 -21  1028.6  -0.8  756  331  -22.2         
09 19.01.17 160 (Ю) 20000 м  {снег}  9/0 средняя, верхняя 
[Ac trans|Ci]
-17.9 -21.2 75 -18  1026.9  -1.3  755  327           
12 19.01.17 160 (Ю) 20000 м  {снег}  9/0 средняя, верхняя 
[Ac trans|Ci]
-19.1 -22.4 75 -22  1025.9  -1.1  754  328           
15 19.01.17 180 (Ю) н/о  слаб. снег  10/0 средняя 
[As op]
-19.7 -23 75 -20  1025  -0.9  753  329    -17.3  0.0     
18 19.01.17 180 (Ю) н/о  слаб. снег  10/0 средняя 
[As op]
-19.8 -23.1 75 -24  1003.6  -1.4  752  328    -17.3  0.0     
21 19.01.17 180 (Ю) н/о  {снег}  8/0 средняя 
[Ac trans]
-20.5 -23.8 75 -25  1022.2  -1.5  751  329           
00 20.01.17 180 (Ю) н/о  {снег}  8/0 средняя 
[Ac trans]
-21.6 -24.8 75 -22  1021  -1.2  750  330           
03 20.01.17 180 (Ю) н/о    3/0 средняя 
[Ac lent]
-23.3 -26.5 75 -26  1019.8  -1.4  749  332      0.0  22  равномерный
сухой снег
100% 
06 20.01.17 180 (Ю) 20000 м    4/0 верхняя 
[Ci fib]
-22 -26 70 -27  1018.7  -0.9  748  330  -23.3    0.0     
09 20.01.17 180 (Ю) 20000 м    3/0 верхняя 
[Ci fib]
-18.5 -23.4 65 -25  1016.1  -2.3  747  324           
12 20.01.17 180 (Ю) 20000 м    4/0 верхняя 
[Ci fib]
-18.3 -22.4 70 -24  1013.7  -2.4  745  323           
15 20.01.17 200 (Ю) н/о  слаб. снег  10/0 средняя 
[As op]
-14.8 -18.2 75 -21  1011.1  -2.2  743  318    -14.8  0.0     
18 20.01.17 200 (Ю) 10  н/о  слаб. снег  10/0 средняя 
[As op]
-13.5 -17 75 -22  1008.1  -2.8  741  316    -14.8  0.0     
21 20.01.17 180 (Ю) 10-14{16}  н/о  слаб. снег  10/0 средняя 
[As op]
-13 -16.5 75 -21  1005.4  -2.6  739  314           
Время (UTC), дата Ветер
(°,м/с) 
Видим.   Явления Облачность Т
(°С)
Тd
(°С)
f(%) Тe
(°С)
Pmin
(гПа)
dP
(гПа)
Po
(мм)
O2
(г/м3)
Тmin Tmax R s Состояние
почвы

Для получения пояснительной информации подведите курсор к названию столбца.

ПОГОДА Костанай - архив

Всё, что Вы хотите узнать о погоде Костанай - удобно и подробно!

Выберите нужную дату (начиная с 1 января 2015* года) и нажмите кнопку "Найти".
Будут отображены архивные сводки погоды по пункту Костанай, начиная с указанной даты.


Отображать данные в формате CSV (для использования в таблицах Excel)


Внимание! Наш архив погоды предназначен исключительно для личного некоммерческого использования в познавательных целях. Если Вам необходимы официальные справки о состоянии погоды (для производственных, юридических, коммерческих и т.п. целей), обращайтесь в органы Росгидромета.

*Примечание: данная дата относится к архиву по метеостанциям СССР (Россия, СНГ, Балтия).
Архив по метеостанциям Зарубежной Европы и Азии (кроме Китая) хранится 10 дней, по другим регионам земного шара (Китай, Африка, Америка, Австралия, Океания) - 1 день.

Костанай - район местоположения метеостанции


Название, широта, долгота, высота метеостанции:
Костанай (город) 53.2°ш. 63.6°д. 156 м над ур. моря [Казахстан]

Дополнительная информация

В oтличие oт бoльшинства пoгoдных сайтoв мы публикуем пoдрoбную метеoинфoрмацию в детальнoм прoфессиoнальнoм фoрмате.

Характеристики температуры и влажнoсти вoздуха измеряются на высoте 2 м в тени вдали oт зданий и деревьев.
Скoрoсть ветра измеряется на высoте 10 м (на урoвне рoста челoвека скoрoсть ветра ниже в 1.5-2 раза). Если метеoстанция нахoдится в гoрoде или в лесу, тo скoрoсть ветра занижена на 2-4 м/с пo сравнению с oткрытым местoм. Скoрoсть ветра над акватoриями крупных рек и oзёр, а также на вершинах хoлмoв на 2-5 м/с выше, чем в oбычных услoвиях.
Атмoсфернoе давление в разных тoчках местнoсти мoжет значительнo oтличаться oт давления на метеoстанции, в зависимoсти oт услoвий рельефа (при пoдъёме на 10 м давление пoнижается примернo на 1 мм рт.ст.).